Location: Baumgartsau
(48.4586°N, 14.0864°E)
Time: 13:31:04
(UTC+00:00)

BREEZE M DEB (TANK) - Pass Details

Date: 13 August 2020
Orbit: 304 x 11869 km, 49.5° (Epoch: 20 September)

Event Time Altitude Azimuth Distance (km) Brightness Sun altitude
Exits shadow 23:39:21 27° 169° (S) 8,450 7.7 -26.9°
Maximum altitude 23:52:23 34° 138° (SE) 5,504 7.0 -26.5°
Drops below altitude 10° 00:04:29 10° 80° (E) 4,469 7.2 -26.0°
Sets 00:07:03 0° 70° (ENE) 4,814 7.6 -25.9°
